This demonstration page uses our WeatherBlox Daily Observations layout. Learn more.

38.88101, -77.10428

Hourly Observations for March 16, 2020

Temp ( °F °C ) Dew Point ( °F °C ) Humidity (%) Winds ( mph kmh ) Pressure ( in mb ) Visibility ( mi km ) Precip ( " mm )
12:52 am 00:52 Mostly Clear 43 6.1 35 1.7 74 74 Calm 30.48 1032 10 16.0934 0 0
1:52 am 01:52 Mostly Cloudy 40 4.4 37 2.8 89 89 N 9 15 30.48 1032 10 16.0934 0 0
2:52 am 02:52 Mostly Cloudy 41 5 33 0.6 73 73 NNE 7 11 30.49 1033 10 16.0934 0 0
3:52 am 03:52 Partly Cloudy 41 5 29 -1.7 62 62 NE 9 15 30.47 1032 10 16.0934 0 0
4:52 am 04:52 Partly Cloudy 41 5 30 -1.1 65 65 NNE 9 15 30.48 1032 10 16.0934 0 0
5:52 am 05:52 Partly Cloudy 39 3.9 31 -0.6 73 73 NNE 7 11 30.48 1032 10 16.0934 0 0
6:52 am 06:52 Mostly Clear 38 3.3 30 -1.1 73 73 N 9 15 30.5 1033 10 16.0934 0 0
7:01 am 07:01 Mostly Cloudy 39 3.9 28 -2.2 65 65 NNE 10 17 30.5 1033 10 16.0934 0 0
7:22 am 07:22 Partly Cloudy 39 3.9 26 -3.3 60 60 NNE 10 17 30.51 1033 10 16.0934 0 0
7:52 am 07:52 Mostly Sunny 39 3.9 24 -4.4 55 55 NNE 10 17 30.51 1033 10 16.0934 0 0
8:52 am 08:52 Mostly Sunny 42 5.6 28 -2.2 58 58 NE 6 9 30.53 1034 10 16.0934 0 0
9:52 am 09:52 Partly Cloudy 46 7.8 36 2.2 68 68 E 6 9 30.53 1034 10 16.0934 0 0
10:52 am 10:52 Mostly Cloudy 49 9.4 32 0 52 52 E 7 11 30.54 1034 10 16.0934 0 0
11:52 am 11:52 Mostly Cloudy 51 10.6 32 0 48 48 SE 7 11 30.51 1033 10 16.0934 0 0
12:52 pm 12:52 Cloudy 53 11.7 32 0 45 45 SSE 7 11 30.48 1032 10 16.0934 0 0
1:52 pm 13:52 Cloudy 55 12.8 31 -0.6 40 40 VRB 7 11 30.47 1032 10 16.0934 0 0
2:52 pm 14:52 Cloudy 54 12.2 30 -1.1 40 40 E 7 11 30.42 1030 10 16.0934 0 0
3:52 pm 15:52 Mostly Cloudy 54 12.2 30 -1.1 40 40 E 8 13 30.41 1030 10 16.0934 0 0
4:52 pm 16:52 Mostly Cloudy 53 11.7 32 0 45 45 SE 10 17 30.39 1029 10 16.0934 0 0
5:52 pm 17:52 Cloudy 52 11.1 33 0.6 49 49 SE 13 20 30.38 1029 10 16.0934 0 0
6:52 pm 18:52 Cloudy 52 11.1 34 1.1 50 50 SE 13 20 30.38 1029 10 16.0934 0 0
7:52 pm 19:52 Cloudy 50 10 35 1.7 57 57 SE 15 24 30.38 1029 10 16.0934 0 0
8:52 pm 20:52 Cloudy 49 9.4 36 2.2 61 61 SE 14 22 30.39 1029 10 16.0934 0 0
9:52 pm 21:52 Cloudy 48 8.9 37 2.8 66 66 ESE 8 13 30.37 1029 10 16.0934 0 0
10:52 pm 22:52 Cloudy 47 8.3 35 1.7 63 63 SE 13 20 30.37 1028 10 16.0934 0 0
11:52 pm 23:52 Cloudy 46 7.8 36 2.2 68 68 SE 9 15 30.34 1028 10 16.0934 0 0

Powered by AerisWeather